| time (UTC) | temp F | wind direction | speed MPH | gust MPH | rain 1hr in | rain 24hr in | rain mn in | humidity % | barometer mb |
| 20260505193512 | 61 | 237 | 1.0 | 5.0 | 0.00 | 0.25 | 0.04 | 75 | 1015.3 |
| 20260505193035 | 61 | 0 | 0.0 | 6.0 | 0.00 | 0.25 | 0.04 | 74 | 1015.3 |
| 20260505192511 | 61 | 0 | 3.0 | 6.0 | 0.00 | 0.25 | 0.04 | 77 | 1015.3 |
| 20260505192014 | 60 | 0 | 1.0 | 5.0 | 0.00 | 0.25 | 0.04 | 83 | 1015.3 |
| 20260505191531 | 60 | 0 | 0.0 | 7.0 | 0.00 | 0.25 | 0.04 | 77 | 1015.3 |
| 20260505191013 | 60 | 248 | 2.0 | 7.0 | 0.00 | 0.25 | 0.04 | 80 | 1015.3 |
| 20260505190517 | 60 | 244 | 3.0 | 7.0 | 0.00 | 0.25 | 0.04 | 81 | 1015.4 |
| 20260505190029 | 61 | 273 | 3.0 | 8.0 | 0.00 | 0.25 | 0.04 | 78 | 1015.4 |
| 20260505185518 | 61 | 203 | 2.0 | 8.0 | 0.00 | 0.25 | 0.04 | 82 | 1015.4 |
| 20260505185015 | 61 | 279 | 4.0 | 8.0 | 0.00 | 0.25 | 0.04 | 78 | 1015.4 |
| 20260505184531 | 61 | 210 | 4.0 | 8.0 | 0.00 | 0.25 | 0.04 | 80 | 1015.4 |
| 20260505184013 | 61 | 194 | 4.0 | 7.0 | 0.00 | 0.25 | 0.04 | 80 | 1015.3 |
| 20260505183514 | 60 | 219 | 3.0 | 7.0 | 0.00 | 0.25 | 0.04 | 81 | 1015.3 |
| 20260505183038 | 59 | 195 | 3.0 | 7.0 | 0.00 | 0.25 | 0.04 | 83 | 1015.3 |
| 20260505182512 | 59 | 213 | 4.0 | 9.0 | 0.00 | 0.25 | 0.04 | 83 | 1015.3 |
| 20260505182016 | 59 | 223 | 4.0 | 9.0 | 0.00 | 0.25 | 0.04 | 84 | 1015.3 |
| 20260505181531 | 58 | 247 | 0.0 | 6.0 | 0.00 | 0.25 | 0.04 | 85 | 1015.3 |
| 20260505181018 | 58 | 223 | 2.0 | 7.0 | 0.00 | 0.25 | 0.04 | 83 | 1015.2 |
| 20260505180511 | 58 | 207 | 3.0 | 8.0 | 0.00 | 0.25 | 0.04 | 82 | 1015.2 |
| 20260505180030 | 58 | 233 | 3.0 | 8.0 | 0.00 | 0.25 | 0.04 | 84 | 1015.1 |
| 20260505175514 | 59 | 226 | 4.0 | 7.0 | 0.00 | 0.25 | 0.04 | 85 | 1015.0 |
| 20260505175013 | 58 | 263 | 3.0 | 7.0 | 0.00 | 0.25 | 0.04 | 85 | 1015.0 |
| 20260505174529 | 59 | 263 | 3.0 | 7.0 | 0.00 | 0.25 | 0.04 | 84 | 1015.0 |
| 20260505174014 | 59 | 219 | 2.0 | 7.0 | 0.00 | 0.25 | 0.04 | 84 | 1015.0 |
| 20260505173513 | 58 | 0 | 3.0 | 7.0 | 0.00 | 0.25 | 0.04 | 87 | 1014.9 |
| 20260505173030 | 58 | 219 | 2.0 | 7.0 | 0.00 | 0.25 | 0.04 | 84 | 1014.9 |
| 20260505172516 | 58 | 237 | 3.0 | 6.0 | 0.00 | 0.25 | 0.04 | 86 | 1015.0 |
| 20260505172012 | 58 | 184 | 2.0 | 6.0 | 0.00 | 0.25 | 0.04 | 88 | 1015.0 |
| 20260505171530 | 57 | 236 | 3.0 | 7.0 | 0.00 | 0.25 | 0.04 | 89 | 1015.0 |
| 20260505171014 | 57 | 146 | 1.0 | 7.0 | 0.00 | 0.25 | 0.04 | 89 | 1014.9 |
| 20260505170514 | 57 | 180 | 3.0 | 6.0 | 0.00 | 0.25 | 0.04 | 90 | 1014.9 |
| 20260505170030 | 57 | 207 | 3.0 | 7.0 | 0.00 | 0.25 | 0.04 | 90 | 1015.0 |
| 20260505165512 | 56 | 209 | 3.0 | 7.0 | 0.00 | 0.25 | 0.04 | 91 | 1015.0 |
| 20260505165014 | 56 | 199 | 3.0 | 7.0 | 0.00 | 0.25 | 0.04 | 91 | 1015.0 |
| 20260505164541 | 56 | 198 | 5.0 | 7.0 | 0.00 | 0.25 | 0.04 | 92 | 1015.0 |
| 20260505164013 | 56 | 213 | 4.0 | 7.0 | 0.00 | 0.25 | 0.04 | 92 | 1015.0 |
| 20260505163513 | 55 | 216 | 4.0 | 6.0 | 0.00 | 0.25 | 0.04 | 93 | 1014.9 |
| 20260505163029 | 55 | 169 | 3.0 | 6.0 | 0.00 | 0.25 | 0.04 | 93 | 1015.0 |
| 20260505162511 | 55 | 159 | 2.0 | 6.0 | 0.00 | 0.25 | 0.04 | 93 | 1015.0 |
| 20260505162014 | 54 | 162 | 2.0 | 6.0 | 0.00 | 0.25 | 0.04 | 93 | 1015.0 |
| 20260505161528 | 54 | 207 | 2.0 | 6.0 | 0.00 | 0.25 | 0.04 | 93 | 1014.9 |
| 20260505161013 | 54 | 175 | 3.0 | 7.0 | 0.00 | 0.25 | 0.04 | 93 | 1014.9 |
| 20260505160514 | 54 | 171 | 3.0 | 7.0 | 0.00 | 0.25 | 0.04 | 93 | 1014.9 |
| 20260505153030 | 53 | 0 | 3.0 | 7.0 | 0.00 | 0.25 | 0.04 | 93 | 1014.7 |
| 20260505152512 | 53 | 142 | 2.0 | 6.0 | 0.00 | 0.25 | 0.04 | 93 | 1014.7 |
| 20260505152015 | 53 | 154 | 3.0 | 7.0 | 0.00 | 0.25 | 0.04 | 93 | 1014.7 |
| 20260505151529 | 53 | 0 | 1.0 | 7.0 | 0.00 | 0.25 | 0.04 | 94 | 1014.6 |
| 20260505151012 | 53 | 174 | 2.0 | 6.0 | 0.00 | 0.25 | 0.04 | 94 | 1014.6 |
| 20260505150513 | 53 | 163 | 1.0 | 6.0 | 0.00 | 0.25 | 0.04 | 94 | 1014.4 |
| 20260505140516 | 52 | 0 | 0.0 | 1.0 | 0.00 | 0.27 | 0.04 | 93 | 1014.1 |
| 20260505125014 | 52 | 0 | 1.0 | 4.0 | 0.00 | 0.27 | 0.04 | 93 | 1013.9 |
| 20260505124536 | 52 | 169 | 0.0 | 3.0 | 0.00 | 0.27 | 0.04 | 93 | 1013.8 |
| 20260505124013 | 52 | 165 | 0.0 | 2.0 | 0.00 | 0.27 | 0.04 | 93 | 1013.8 |
| 20260505123511 | 52 | 0 | 0.0 | 3.0 | 0.00 | 0.27 | 0.04 | 93 | 1013.8 |
| 20260505123030 | 52 | 0 | 0.0 | 4.0 | 0.00 | 0.27 | 0.04 | 93 | 1013.8 |
| 20260505122512 | 52 | 175 | 1.0 | 4.0 | 0.00 | 0.27 | 0.04 | 93 | 1013.7 |
| 20260505122017 | 52 | 179 | 1.0 | 4.0 | 0.00 | 0.27 | 0.04 | 93 | 1013.8 |
| 20260505121534 | 52 | 171 | 1.0 | 3.0 | 0.00 | 0.27 | 0.04 | 93 | 1013.8 |
| 20260505121015 | 52 | 180 | 0.0 | 4.0 | 0.00 | 0.27 | 0.04 | 93 | 1013.9 |
| 20260505120513 | 52 | 180 | 1.0 | 5.0 | 0.00 | 0.27 | 0.04 | 93 | 1013.9 |
| 20260505120034 | 52 | 150 | 1.0 | 5.0 | 0.00 | 0.27 | 0.04 | 93 | 1013.9 |
| 20260505115512 | 52 | 180 | 1.0 | 6.0 | 0.00 | 0.27 | 0.04 | 93 | 1014.0 |
| 20260505115013 | 52 | 173 | 2.0 | 6.0 | 0.00 | 0.27 | 0.04 | 93 | 1013.9 |
| 20260505114529 | 52 | 175 | 2.0 | 5.0 | 0.00 | 0.27 | 0.04 | 93 | 1013.9 |
| 20260505114016 | 52 | 170 | 1.0 | 5.0 | 0.00 | 0.27 | 0.04 | 93 | 1014.0 |
| 20260505113514 | 52 | 0 | 1.0 | 5.0 | 0.00 | 0.27 | 0.04 | 93 | 1013.9 |
| 20260505113032 | 52 | 0 | 1.0 | 5.0 | 0.00 | 0.27 | 0.04 | 93 | 1014.0 |
| 20260505112513 | 52 | 0 | 0.0 | 6.0 | 0.00 | 0.27 | 0.04 | 93 | 1014.0 |
| 20260505112013 | 52 | 166 | 1.0 | 7.0 | 0.00 | 0.27 | 0.04 | 93 | 1014.0 |
| 20260505111528 | 52 | 169 | 3.0 | 7.0 | 0.00 | 0.27 | 0.04 | 93 | 1013.9 |
| 20260505111015 | 52 | 186 | 3.0 | 7.0 | 0.00 | 0.27 | 0.04 | 93 | 1013.7 |
| 20260505110512 | 52 | 214 | 3.0 | 7.0 | 0.00 | 0.27 | 0.04 | 93 | 1013.7 |
| 20260505102011 | 52 | 0 | 0.0 | 3.0 | 0.01 | 0.27 | 0.04 | 92 | 1013.9 |
| 20260505101014 | 52 | 149 | 1.0 | 6.0 | 0.01 | 0.27 | 0.04 | 92 | 1013.9 |
| 20260505100513 | 52 | 176 | 3.0 | 6.0 | 0.01 | 0.27 | 0.04 | 92 | 1013.9 |
| 20260505100031 | 52 | 174 | 1.0 | 6.0 | 0.00 | 0.26 | 0.03 | 92 | 1014.0 |
| 20260505095512 | 52 | 0 | 0.0 | 6.0 | 0.00 | 0.26 | 0.03 | 92 | 1014.1 |
| 20260505095012 | 52 | 181 | 3.0 | 6.0 | 0.00 | 0.26 | 0.03 | 92 | 1014.0 |
| 20260505094533 | 52 | 165 | 1.0 | 6.0 | 0.00 | 0.26 | 0.03 | 92 | 1014.1 |
| 20260505094012 | 52 | 153 | 0.0 | 4.0 | 0.00 | 0.26 | 0.03 | 92 | 1014.1 |
| 20260505093512 | 52 | 0 | 0.0 | 5.0 | 0.00 | 0.26 | 0.03 | 92 | 1014.2 |
| 20260505093031 | 52 | 178 | 3.0 | 5.0 | 0.00 | 0.26 | 0.03 | 92 | 1014.1 |
| 20260505092517 | 52 | 178 | 2.0 | 5.0 | 0.00 | 0.26 | 0.03 | 92 | 1014.3 |
| 20260505092013 | 52 | 189 | 2.0 | 5.0 | 0.00 | 0.26 | 0.03 | 92 | 1014.3 |
| 20260505091530 | 53 | 237 | 3.0 | 6.0 | 0.00 | 0.26 | 0.03 | 92 | 1014.3 |
| 20260505091012 | 53 | 208 | 2.0 | 6.0 | 0.00 | 0.26 | 0.03 | 92 | 1014.4 |
| 20260505090513 | 53 | 220 | 3.0 | 6.0 | 0.00 | 0.26 | 0.03 | 92 | 1014.3 |
| 20260505090031 | 53 | 214 | 2.0 | 5.0 | 0.00 | 0.26 | 0.03 | 92 | 1014.4 |
| 20260505085513 | 53 | 212 | 3.0 | 5.0 | 0.00 | 0.26 | 0.03 | 92 | 1014.4 |
| 20260505085014 | 53 | 175 | 1.0 | 4.0 | 0.00 | 0.26 | 0.03 | 92 | 1014.5 |
| 20260505084543 | 53 | 206 | 2.0 | 4.0 | 0.00 | 0.26 | 0.03 | 92 | 1014.5 |
| 20260505084013 | 53 | 201 | 2.0 | 4.0 | 0.00 | 0.26 | 0.03 | 92 | 1014.6 |
| 20260505083514 | 53 | 211 | 2.0 | 4.0 | 0.01 | 0.26 | 0.03 | 92 | 1014.7 |
| 20260505083031 | 53 | 192 | 2.0 | 5.0 | 0.01 | 0.26 | 0.03 | 92 | 1014.7 |
| 20260505082513 | 53 | 205 | 3.0 | 5.0 | 0.02 | 0.26 | 0.03 | 92 | 1014.7 |
| 20260505082014 | 53 | 210 | 3.0 | 6.0 | 0.02 | 0.26 | 0.03 | 92 | 1014.7 |
| 20260505081532 | 53 | 207 | 3.0 | 6.0 | 0.02 | 0.26 | 0.03 | 92 | 1014.7 |
| 20260505081013 | 53 | 209 | 3.0 | 7.0 | 0.02 | 0.26 | 0.03 | 92 | 1014.6 |
| 20260505080513 | 53 | 206 | 3.0 | 7.0 | 0.03 | 0.26 | 0.03 | 92 | 1014.5 |
| 20260505080028 | 53 | 209 | 4.0 | 6.0 | 0.03 | 0.26 | 0.03 | 92 | 1014.6 |
| 20260505075513 | 53 | 220 | 2.0 | 4.0 | 0.04 | 0.26 | 0.03 | 92 | 1014.7 |
| 20260505075013 | 53 | 200 | 2.0 | 4.0 | 0.04 | 0.26 | 0.03 | 92 | 1014.7 |
| 20260505074528 | 53 | 206 | 3.0 | 4.0 | 0.04 | 0.26 | 0.03 | 92 | 1014.8 |
| 20260505074013 | 53 | 185 | 1.0 | 4.0 | 0.05 | 0.26 | 0.03 | 92 | 1014.9 |
| 20260505073512 | 53 | 180 | 0.0 | 2.0 | 0.04 | 0.25 | 0.02 | 92 | 1015.0 |
| 20260505073033 | 53 | 0 | 0.0 | 3.0 | 0.04 | 0.25 | 0.02 | 92 | 1015.0 |
| 20260505072513 | 53 | 0 | 0.0 | 3.0 | 0.03 | 0.24 | 0.01 | 92 | 1015.1 |
| 20260505072017 | 53 | 0 | 0.0 | 2.0 | 0.03 | 0.24 | 0.01 | 91 | 1015.1 |
| 20260505071531 | 53 | 0 | 0.0 | 2.0 | 0.03 | 0.24 | 0.01 | 92 | 1015.0 |
| 20260505071015 | 53 | 0 | 0.0 | 4.0 | 0.03 | 0.24 | 0.01 | 92 | 1014.9 |
| 20260505070517 | 53 | 0 | 2.0 | 4.0 | 0.02 | 0.23 | 0.00 | 91 | 1015.1 |
| 20260505070040 | 53 | 67 | 2.0 | 4.0 | 0.03 | 0.23 | 0.00 | 91 | 1015.0 |
| 20260505065517 | 53 | 97 | 0.0 | 2.0 | 0.03 | 0.22 | 0.22 | 91 | 1014.8 |
| 20260505065015 | 53 | 0 | 0.0 | 2.0 | 0.04 | 0.22 | 0.22 | 91 | 1014.6 |
| 20260505064530 | 53 | 144 | 0.0 | 2.0 | 0.05 | 0.22 | 0.22 | 91 | 1014.6 |
| 20260505064017 | 53 | 0 | 0.0 | 2.0 | 0.04 | 0.21 | 0.21 | 91 | 1014.9 |
| 20260505063513 | 53 | 0 | 0.0 | 2.0 | 0.04 | 0.21 | 0.21 | 91 | 1014.9 |
| 20260505063033 | 53 | 55 | 0.0 | 3.0 | 0.04 | 0.21 | 0.21 | 91 | 1014.8 |
| 20260505062513 | 53 | 0 | 1.0 | 3.0 | 0.04 | 0.21 | 0.21 | 91 | 1014.9 |
| 20260505062012 | 53 | 55 | 1.0 | 3.0 | 0.04 | 0.21 | 0.21 | 91 | 1014.9 |
| 20260505061532 | 53 | 0 | 0.0 | 3.0 | 0.04 | 0.21 | 0.21 | 91 | 1014.7 |
| 20260505061011 | 53 | 0 | 1.0 | 3.0 | 0.04 | 0.21 | 0.21 | 91 | 1014.6 |
| 20260505060513 | 53 | 202 | 1.0 | 3.0 | 0.04 | 0.21 | 0.21 | 91 | 1014.3 |
| 20260505060035 | 53 | 188 | 1.0 | 2.0 | 0.03 | 0.20 | 0.20 | 91 | 1014.3 |
| 20260505055513 | 53 | 175 | 1.0 | 2.0 | 0.03 | 0.19 | 0.19 | 91 | 1014.6 |
| 20260505055012 | 53 | 103 | 0.0 | 1.0 | 0.02 | 0.18 | 0.18 | 91 | 1014.7 |
| 20260505054530 | 53 | 0 | 0.0 | 1.0 | 0.01 | 0.17 | 0.17 | 90 | 1014.7 |
| 20260505054019 | 53 | 0 | 0.0 | 1.0 | 0.01 | 0.17 | 0.17 | 90 | 1014.7 |
| 20260505053510 | 53 | 0 | 0.0 | 1.0 | 0.02 | 0.17 | 0.17 | 90 | 1014.7 |
| 20260505053040 | 53 | 0 | 0.0 | 1.0 | 0.02 | 0.17 | 0.17 | 90 | 1014.7 |
| 20260505052512 | 53 | 0 | 0.0 | 1.0 | 0.03 | 0.17 | 0.17 | 90 | 1014.7 |
| 20260505052013 | 54 | 0 | 0.0 | 1.0 | 0.03 | 0.17 | 0.17 | 90 | 1014.6 |
| 20260505051530 | 54 | 0 | 0.0 | 1.0 | 0.03 | 0.17 | 0.17 | 90 | 1014.6 |
| 20260505051013 | 54 | 0 | 0.0 | 0.0 | 0.03 | 0.17 | 0.17 | 90 | 1014.7 |
| 20260505050513 | 54 | 0 | 0.0 | 3.0 | 0.04 | 0.17 | 0.17 | 90 | 1014.7 |
| 20260505041539 | 55 | 64 | 1.0 | 3.0 | 0.09 | 0.14 | 0.14 | 89 | 1014.9 |
| 20260505041013 | 55 | 76 | 1.0 | 3.0 | 0.09 | 0.13 | 0.13 | 89 | 1014.9 |
| 20260505040513 | 55 | 76 | 2.0 | 4.0 | 0.09 | 0.13 | 0.13 | 89 | 1014.9 |
| 20260505040029 | 55 | 75 | 2.0 | 4.0 | 0.08 | 0.12 | 0.12 | 89 | 1014.8 |
| 20260505035512 | 55 | 69 | 1.0 | 4.0 | 0.08 | 0.12 | 0.12 | 89 | 1014.9 |
| 20260505035013 | 55 | 49 | 0.0 | 1.0 | 0.07 | 0.11 | 0.11 | 89 | 1014.9 |
| 20260505034532 | 55 | 0 | 0.0 | 1.0 | 0.07 | 0.11 | 0.11 | 89 | 1014.8 |
| 20260505034012 | 55 | 0 | 0.0 | 1.0 | 0.06 | 0.10 | 0.10 | 89 | 1014.7 |
| 20260505033516 | 55 | 0 | 0.0 | 1.0 | 0.05 | 0.09 | 0.09 | 88 | 1014.6 |
| 20260505033028 | 55 | 0 | 0.0 | 1.0 | 0.03 | 0.07 | 0.07 | 88 | 1014.6 |
| 20260505032513 | 55 | 0 | 0.0 | 2.0 | 0.02 | 0.06 | 0.06 | 88 | 1014.6 |
| 20260505032012 | 55 | 0 | 0.0 | 2.0 | 0.01 | 0.05 | 0.05 | 88 | 1014.7 |
| 20260505031528 | 55 | 61 | 1.0 | 3.0 | 0.01 | 0.05 | 0.05 | 87 | 1014.8 |
| 20260505031017 | 55 | 71 | 1.0 | 3.0 | 0.00 | 0.04 | 0.04 | 87 | 1014.7 |
| 20260505030514 | 55 | 83 | 1.0 | 3.0 | 0.00 | 0.04 | 0.04 | 87 | 1014.6 |
| 20260505030028 | 55 | 78 | 1.0 | 2.0 | 0.00 | 0.04 | 0.04 | 87 | 1014.5 |
| 20260505025513 | 55 | 0 | 0.0 | 2.0 | 0.00 | 0.04 | 0.04 | 87 | 1014.4 |
| 20260505025014 | 55 | 0 | 0.0 | 2.0 | 0.00 | 0.04 | 0.04 | 87 | 1014.3 |
| 20260505024528 | 55 | 0 | 0.0 | 4.0 | 0.00 | 0.04 | 0.04 | 87 | 1014.1 |
| 20260505024016 | 56 | 0 | 0.0 | 5.0 | 0.00 | 0.04 | 0.04 | 87 | 1014.1 |
| 20260505023511 | 56 | 278 | 2.0 | 5.0 | 0.00 | 0.04 | 0.04 | 87 | 1014.1 |
| 20260505023029 | 56 | 265 | 0.0 | 4.0 | 0.00 | 0.04 | 0.04 | 87 | 1014.0 |
| 20260505022515 | 56 | 0 | 1.0 | 4.0 | 0.00 | 0.04 | 0.04 | 87 | 1014.1 |
| 20260505022013 | 56 | 74 | 2.0 | 4.0 | 0.00 | 0.04 | 0.04 | 87 | 1014.1 |
| 20260505021531 | 56 | 84 | 2.0 | 4.0 | 0.00 | 0.04 | 0.04 | 87 | 1014.2 |
| 20260505021014 | 56 | 0 | 0.0 | 4.0 | 0.01 | 0.04 | 0.04 | 87 | 1014.3 |
| 20260505020514 | 56 | 171 | 0.0 | 4.0 | 0.01 | 0.04 | 0.04 | 87 | 1014.2 |
| 20260505020028 | 56 | 169 | 0.0 | 2.0 | 0.01 | 0.04 | 0.04 | 88 | 1014.2 |
| 20260505015515 | 56 | 0 | 0.0 | 4.0 | 0.01 | 0.04 | 0.04 | 87 | 1014.1 |
| 20260505015018 | 56 | 0 | 1.0 | 4.0 | 0.01 | 0.04 | 0.04 | 87 | 1014.0 |
| 20260505014528 | 56 | 74 | 0.0 | 3.0 | 0.01 | 0.04 | 0.04 | 87 | 1014.0 |
| 20260505014013 | 56 | 84 | 1.0 | 4.0 | 0.01 | 0.04 | 0.04 | 87 | 1014.0 |
| 20260505013511 | 56 | 0 | 1.0 | 4.0 | 0.02 | 0.04 | 0.04 | 87 | 1014.0 |
| 20260505013030 | 56 | 101 | 2.0 | 4.0 | 0.02 | 0.04 | 0.04 | 87 | 1014.1 |
| 20260505012515 | 56 | 82 | 1.0 | 6.0 | 0.02 | 0.04 | 0.04 | 87 | 1014.0 |
| 20260505012015 | 56 | 116 | 1.0 | 6.0 | 0.02 | 0.04 | 0.04 | 87 | 1014.1 |
| 20260505011547 | 57 | 103 | 1.0 | 7.0 | 0.02 | 0.04 | 0.04 | 87 | 1014.0 |
| 20260505011015 | 57 | 96 | 2.0 | 8.0 | 0.01 | 0.03 | 0.03 | 86 | 1014.1 |
| 20260505010517 | 57 | 82 | 2.0 | 8.0 | 0.01 | 0.03 | 0.03 | 86 | 1014.3 |
| 20260505010029 | 57 | 71 | 3.0 | 7.0 | 0.01 | 0.03 | 0.03 | 86 | 1014.4 |
| 20260505005518 | 57 | 82 | 2.0 | 6.0 | 0.01 | 0.03 | 0.03 | 86 | 1014.4 |
| 20260505005011 | 57 | 80 | 2.0 | 7.0 | 0.01 | 0.03 | 0.03 | 85 | 1014.5 |
| 20260505004528 | 57 | 80 | 2.0 | 7.0 | 0.01 | 0.03 | 0.03 | 84 | 1014.5 |
| 20260505004010 | 57 | 92 | 3.0 | 8.0 | 0.01 | 0.03 | 0.03 | 84 | 1014.5 |
| 20260505003510 | 57 | 72 | 4.0 | 8.0 | 0.00 | 0.02 | 0.02 | 84 | 1014.5 |
| 20260505003028 | 57 | 68 | 4.0 | 8.0 | 0.00 | 0.02 | 0.02 | 84 | 1014.6 |
| 20260505002511 | 57 | 69 | 4.0 | 8.0 | 0.00 | 0.02 | 0.02 | 84 | 1014.5 |
| 20260505002018 | 57 | 81 | 4.0 | 7.0 | 0.00 | 0.02 | 0.02 | 85 | 1014.6 |
| 20260505001528 | 57 | 57 | 4.0 | 9.0 | 0.00 | 0.02 | 0.02 | 85 | 1014.5 |
| 20260505001015 | 57 | 63 | 4.0 | 9.0 | 0.00 | 0.02 | 0.02 | 85 | 1014.5 |
| 20260505000514 | 58 | 80 | 5.0 | 9.0 | 0.00 | 0.02 | 0.02 | 84 | 1014.6 |
| 20260505000037 | 58 | 89 | 4.0 | 9.0 | 0.00 | 0.02 | 0.02 | 86 | 1014.5 |
| 20260504235509 | 58 | 88 | 3.0 | 7.0 | 0.00 | 0.02 | 0.02 | 86 | 1014.4 |
| 20260504235011 | 58 | 81 | 2.0 | 6.0 | 0.00 | 0.02 | 0.02 | 87 | 1014.5 |
| 20260504234530 | 58 | 65 | 3.0 | 7.0 | 0.00 | 0.02 | 0.02 | 87 | 1014.4 |
| 20260504234009 | 58 | 84 | 3.0 | 7.0 | 0.00 | 0.02 | 0.02 | 86 | 1014.5 |
| 20260504233513 | 58 | 71 | 3.0 | 7.0 | 0.00 | 0.02 | 0.02 | 86 | 1014.5 |
| 20260504233028 | 58 | 82 | 3.0 | 7.0 | 0.00 | 0.02 | 0.02 | 85 | 1014.6 |
| 20260504232513 | 58 | 97 | 2.0 | 8.0 | 0.00 | 0.02 | 0.02 | 83 | 1014.5 |
| 20260504232012 | 58 | 80 | 4.0 | 8.0 | 0.00 | 0.02 | 0.02 | 84 | 1014.5 |
| 20260504231528 | 59 | 57 | 3.0 | 7.0 | 0.00 | 0.02 | 0.02 | 85 | 1014.5 |
| 20260504231012 | 59 | 76 | 3.0 | 7.0 | 0.00 | 0.02 | 0.02 | 84 | 1014.6 |
| 20260504230512 | 59 | 66 | 2.0 | 7.0 | 0.00 | 0.02 | 0.02 | 84 | 1014.6 |
| 20260504230030 | 59 | 74 | 2.0 | 7.0 | 0.00 | 0.02 | 0.02 | 83 | 1014.6 |
| 20260504225513 | 58 | 93 | 3.0 | 7.0 | 0.00 | 0.02 | 0.02 | 83 | 1014.6 |
| 20260504225010 | 59 | 71 | 2.0 | 7.0 | 0.00 | 0.02 | 0.02 | 84 | 1014.6 |
| 20260504224533 | 59 | 98 | 2.0 | 7.0 | 0.00 | 0.02 | 0.02 | 84 | 1014.7 |
| 20260504224013 | 59 | 87 | 2.0 | 10.0 | 0.00 | 0.02 | 0.02 | 84 | 1014.9 |
| 20260504223516 | 59 | 101 | 4.0 | 10.0 | 0.00 | 0.02 | 0.02 | 84 | 1014.9 |
| 20260504223027 | 59 | 74 | 5.0 | 10.0 | 0.00 | 0.02 | 0.02 | 84 | 1014.9 |
| 20260504222513 | 59 | 84 | 3.0 | 7.0 | 0.00 | 0.02 | 0.02 | 83 | 1015.0 |
| 20260504222012 | 60 | 0 | 1.0 | 6.0 | 0.00 | 0.02 | 0.02 | 82 | 1014.9 |
| 20260504221530 | 60 | 0 | 0.0 | 6.0 | 0.00 | 0.02 | 0.02 | 80 | 1014.9 |
| 20260504221017 | 60 | 103 | 3.0 | 6.0 | 0.00 | 0.02 | 0.02 | 79 | 1014.9 |
| 20260504220514 | 60 | 70 | 0.0 | 3.0 | 0.00 | 0.02 | 0.02 | 79 | 1014.9 |
| 20260504220028 | 59 | 0 | 0.0 | 6.0 | 0.00 | 0.02 | 0.02 | 80 | 1014.9 |
| 20260504215510 | 59 | 0 | 0.0 | 6.0 | 0.00 | 0.02 | 0.02 | 80 | 1014.9 |
| 20260504215012 | 59 | 88 | 2.0 | 4.0 | 0.00 | 0.02 | 0.02 | 79 | 1015.0 |
| 20260504214530 | 59 | 0 | 0.0 | 4.0 | 0.00 | 0.02 | 0.02 | 79 | 1015.1 |
| 20260504214015 | 59 | 0 | 0.0 | 4.0 | 0.00 | 0.02 | 0.02 | 78 | 1015.1 |
| 20260504213514 | 59 | 0 | 0.0 | 3.0 | 0.00 | 0.02 | 0.02 | 78 | 1015.1 |
| 20260504213034 | 59 | 82 | 1.0 | 3.0 | 0.00 | 0.02 | 0.02 | 78 | 1015.1 |
| 20260504212514 | 59 | 96 | 0.0 | 3.0 | 0.00 | 0.02 | 0.02 | 79 | 1015.2 |
| 20260504212014 | 59 | 93 | 0.0 | 2.0 | 0.00 | 0.02 | 0.02 | 79 | 1015.1 |
| 20260504211528 | 59 | 0 | 0.0 | 2.0 | 0.00 | 0.02 | 0.02 | 78 | 1015.2 |
| 20260504211014 | 59 | 0 | 0.0 | 2.0 | 0.00 | 0.02 | 0.02 | 79 | 1015.2 |
| 20260504210515 | 59 | 0 | 0.0 | 7.0 | 0.00 | 0.02 | 0.02 | 80 | 1015.1 |
| 20260504210028 | 59 | 0 | 1.0 | 7.0 | 0.00 | 0.02 | 0.02 | 80 | 1015.1 |
| 20260504205514 | 59 | 246 | 2.0 | 5.0 | 0.00 | 0.02 | 0.02 | 79 | 1015.1 |
| 20260504205012 | 59 | 161 | 3.0 | 6.0 | 0.00 | 0.02 | 0.02 | 79 | 1015.1 |
| 20260504204528 | 59 | 168 | 2.0 | 6.0 | 0.00 | 0.02 | 0.02 | 83 | 1015.0 |
| 20260504204014 | 59 | 215 | 2.0 | 6.0 | 0.00 | 0.02 | 0.02 | 82 | 1015.0 |
| 20260504203513 | 59 | 0 | 3.0 | 6.0 | 0.00 | 0.02 | 0.02 | 83 | 1015.1 |
| 20260504203028 | 59 | 0 | 1.0 | 6.0 | 0.00 | 0.02 | 0.02 | 84 | 1015.1 |
| 20260504202513 | 58 | 0 | 1.0 | 6.0 | 0.00 | 0.02 | 0.02 | 83 | 1015.0 |
| 20260504202015 | 58 | 0 | 0.0 | 5.0 | 0.00 | 0.02 | 0.02 | 84 | 1015.1 |
| 20260504201531 | 58 | 0 | 0.0 | 5.0 | 0.00 | 0.02 | 0.02 | 84 | 1015.0 |
| 20260504201014 | 58 | 0 | 0.0 | 5.0 | 0.00 | 0.02 | 0.02 | 85 | 1015.1 |
| 20260504200515 | 58 | 171 | 0.0 | 3.0 | 0.00 | 0.02 | 0.02 | 85 | 1015.1 |
| 20260504200030 | 58 | 0 | 0.0 | 3.0 | 0.00 | 0.02 | 0.02 | 84 | 1015.2 |
| 20260504195512 | 58 | 178 | 1.0 | 4.0 | 0.00 | 0.02 | 0.02 | 83 | 1015.1 |
| 20260504195013 | 58 | 0 | 0.0 | 8.0 | 0.00 | 0.02 | 0.02 | 82 | 1015.2 |
| 20260504194531 | 58 | 179 | 3.0 | 10.0 | 0.00 | 0.02 | 0.02 | 83 | 1015.2 |
| 20260504194014 | 58 | 188 | 6.0 | 10.0 | 0.00 | 0.02 | 0.02 | 82 | 1015.2 |